Weather observations for the past three days for
Rhode Island TF Green International Airport
Imperial (Metric)
Date Time (edt) Wind (mph) Vis. (mi.) Weather Sky Cond. Temperature (ºF) Relative Humidity Wind Chill (°F) Heat Index (°F) Pressure Precipitation (in)
Air Dwpt 6 hour altimeter (in) sea level (mb) 1 hr 3 hr 6 hr
Max. Min.
24 09:51 W 14 G 21 10.00 Partly Cloudy SCT035 SCT300 80.1 66 62% 82 29.53 1000.0
24 08:51 W 17 G 24 10.00 Partly Cloudy FEW025 FEW100 SCT300 79 66.9 67% 81 29.53 999.9
24 07:51 W 12 G 21 10.00 Partly Cloudy FEW010 FEW045 SCT250 75.9 70 75.9 70 82% 77 29.53 999.7
24 06:51 SW 7 10.00 Partly Cloudy FEW007 FEW015 FEW110 SCT250 73.9 71.1 91% 29.52 999.6
24 05:51 SW 8 6.00 Fog/Mist BKN011 BKN025 BKN250 72 70 94% 29.53 999.8
24 04:51 SW 10 G 22 9.00 Overcast OVC013 71.1 69.1 94% 29.53 999.9
24 03:51 SW 12 10.00 Fair CLR 71.1 68 90% 29.54 1000.2
24 02:51 S 13 G 25 10.00 A Few Clouds FEW013 71.1 69.1 94% 29.54 1000.4
24 01:51 SW 14 G 28 10.00 Light Rain FEW044 FEW070 SCT090 73 69.1 77 71.1 87% 29.55 1000.6 0.06
24 00:51 SW 16 G 31 10.00 A Few Clouds FEW065 73 70 90% 29.57 1001.2
23 23:51 S 7 9.00 Overcast SCT095 BKN120 OVC240 73 72 96% 29.57 1001.3
23 22:51 S 6 10.00 Overcast FEW095 SCT120 OVC150 71.1 69.1 94% 29.58 1001.6 0.06 0.06
23 21:51 SW 12 G 29 4.00 Thunderstorm Rain Fog/Mist SCT015 BKN045CB OVC110 75 72 90% 74 29.6 1002.4
23 20:51 SW 16 G 26 10.00 Overcast FEW015 OVC220 75.9 72 88% 76 29.58 1001.6
23 19:51 SW 15 G 24 9.00 Overcast FEW015 BKN200 OVC250 75.9 72 84 75.9 88% 76 29.59 1001.9
23 18:51 SW 14 G 22 9.00 Mostly Cloudy FEW020 BKN110 BKN220 77 72 85% 78 29.6 1002.4
23 17:51 S 16 G 24 10.00 Mostly Cloudy FEW020 BKN210 BKN250 79 73 82% 82 29.6 1002.2
23 16:51 S 16 G 24 10.00 Mostly Cloudy FEW020 SCT100 BKN240 BKN300 81 73 77% 86 29.62 1002.8
23 15:51 S 17 10.00 Mostly Cloudy FEW020 SCT095 BKN240 BKN300 84 75 74% 92 29.64 1003.5
23 14:51 SW 15 G 23 10.00 Mostly Cloudy FEW020 FEW095 BKN130 BKN300 82 73.9 77% 88 29.67 1004.7
23 13:51 SW 16 G 23 10.00 Mostly Cloudy FEW015 FEW100 BKN130 BKN300 82 73.9 82 69.1 77% 88 29.7 1005.8
23 12:51 SW 13 10.00 Mostly Cloudy FEW014 BKN130 BKN300 81 75 82% 87 29.73 1006.6
23 11:51 S 16 G 25 10.00 Mostly Cloudy BKN011 79 73.9 85% 83 29.75 1007.3
23 10:51 S 12 10.00 Overcast OVC007 75.9 73.9 94% 75 29.77 1008.1
23 09:51 SW 12 4.00 Light Drizzle Fog/Mist OVC005 73.9 73.9 100% 29.8 1009.0
23 08:51 S 12 6.00 Fog/Mist OVC005 72 71.1 97% 29.82 1009.8
23 07:51 S 9 4.00 Fog/Mist OVC004 69.1 69.1 69.1 64 100% 29.85 1010.6 0.67
23 06:51 S 8 6.00 Fog/Mist OVC004 68 68 100% 29.86 1011.1 0.16
23 05:51 S 6 0.75 Thunderstorm Light Rain Fog/Mist SCT006 BKN015CB OVC050 64.9 64.9 100% 29.9 1012.2 0.2
23 04:51 SE 3 10.00 Overcast OVC005 64.9 64.9 100% 29.9 1012.5 0.31
23 03:51 SE 8 6.00 Light Rain Fog/Mist FEW009 SCT049 BKN095 64 64 100% 29.91 1012.7 0.31
23 02:51 N 7 2.50 Fog/Mist OVC003 64 64 100% 29.96 1014.4
23 01:51 N 7 3.00 Fog/Mist OVC003 64 64 68 64 100% 29.97 1014.7
23 00:51 N 7 2.50 Fog/Mist OVC003 64 64 100% 29.99 1015.3
22 23:51 N 8 1.75 Fog/Mist OVC005 64 64 100% 29.99 1015.6
22 22:51 N 7 2.00 Fog/Mist OVC004 64.9 64.9 100% 30 1015.9
22 21:51 N 8 6.00 Fog/Mist OVC005 64.9 64 97% 30 1015.9
22 20:51 NE 8 7.00 Overcast OVC006 66.9 66 97% 29.99 1015.4
22 19:51 NE 5 7.00 Overcast OVC006 68 66.9 77 66.9 96% 29.99 1015.4 0.27
22 18:51 Calm 8.00 Light Rain BKN006 BKN032 OVC110 68 66.9 96% 29.99 1015.3 0.08
22 17:51 E 7 3.00 Thunderstorm Light Rain Fog/Mist SCT006 BKN028CB OVC080 66.9 66.9 100% 29.99 1015.5 0.19
22 16:51 N 13 2.50 Fog/Mist OVC008 70 68 93% 30.01 1016.2
22 15:51 E 7 8.00 Overcast SCT011 OVC015 73.9 70 88% 29.99 1015.3
22 14:51 NE 8 8.00 Overcast OVC013 75 70 84% 75 30 1015.9
22 13:51 NE 7 8.00 Overcast OVC013 75.9 70 75.9 68 82% 77 30.01 1016.0
22 12:51 Vrbl 5 8.00 Overcast OVC012 75.9 71.1 85% 76 30.02 1016.6
22 11:51 NE 6 7.00 Overcast OVC010 73.9 70 88% 30.04 1017.0
22 10:51 E 3 6.00 Fog/Mist OVC009 72 70 94% 30.05 1017.4
22 09:51 Calm 5.00 Fog/Mist OVC005 72 69.1 91% 30.06 1017.7
22 08:51 Calm 1.00 Fog/Mist OVC003 70 70 100% 30.06 1017.8
22 07:51 E 3 1.00 Fog/Mist OVC002 68 68 68 68 100% 30.06 1017.9
22 06:51 NE 6 1.00 Fog/Mist OVC002 68 68 100% 30.07 1018.2
22 05:51 Calm 1.00 Fog/Mist OVC002 68 68 100% 30.06 1017.8
22 04:51 Calm 2.00 Fog/Mist OVC002 68 68 100% 30.07 1018.2
22 03:51 E 3 2.00 Fog/Mist OVC002 68 68 100% 30.08 1018.4
22 02:51 NE 5 2.00 Fog/Mist OVC003 68 68 100% 30.1 1019.3
22 01:51 Calm 2.00 Fog/Mist OVC004 68 68 70 68 100% 30.11 1019.6 0.6
22 00:51 Calm 7.00 Overcast OVC005 68 68 100% 30.11 1019.4
21 23:51 N 6 9.00 Overcast BKN005 OVC009 68 68 100% 30.12 1019.9
21 22:51 N 6 9.00 Overcast OVC007 69.1 68 96% 30.13 1020.3 0.6
21 21:51 NE 7 9.00 Overcast BKN006 OVC080 70 69.1 97% 30.13 1020.3 0.05
21 20:51 E 6 4.00 Thunderstorm Heavy Rain Fog/Mist BKN008 OVC017 70 70 100% 30.15 1020.7 0.55
21 19:51 Calm 2.50 Thunderstorm Heavy Rain Fog/Mist FEW017 OVC024CB 72 71.1 89.1 72 97% 30.17 1021.5 0.17 0.7
21 18:51 Calm 6.00 Light Rain Fog/Mist OVC021 73.9 71.1 91% 30.14 1020.6
21 17:51 S 6 8.00 Mostly Cloudy SCT029 SCT040 BKN110 BKN180 75 72 90% 74 30.12 1019.9 0.01
21 16:51 E 3 3.00 Thunderstorm Light Rain Fog/Mist SCT043CB BKN090 BKN110 75.9 73.9 94% 75 30.13 1020.0 0.14 0.52
21 15:51 Vrbl 3 G 35 1.00 Thunderstorm Light Rain BKN025CB BKN085 75.9 70 82% 77 30.13 1020.3 0.38
21 14:51 E 12 10.00 Thunderstorm BKN040CB BKN065 86 72 63% 92 30.11 1019.7
21 13:51 E 15 G 20 10.00 Mostly Cloudy BKN042 BKN050 BKN250 88 72 90 75.9 59% 95 30.13 1020.1
21 12:51 N 8 10.00 Partly Cloudy SCT043 SCT250 88 70 55% 93 30.15 1020.8
21 11:51 N 9 10.00 Partly Cloudy SCT030 SCT250 88 72 59% 95 30.16 1021.1
21 10:51 N 3 10.00 Partly Cloudy FEW030 SCT250 86 72 63% 92 30.15 1021.0
Date Time (edt) Wind (mph) Vis. (mi.) Weather Sky Cond. Air Dwpt Max. Min. Relative Humidity Wind Chill (°F) Heat Index (°F) altimeter (in) sea level (mb) 1 hr 3 hr 6 hr
6 hour
Temperature (ºF) Pressure Precipitation (in)